Theta_e
317 314 314 312 314 315 315 316 320 317 318 322 321 320 319 320 322 327 328 332 335 326 324 325 327 325 331 332 333 336 339 338 336 334 334 334 335 334 334 335 337 338 338 342 343 344 347 349 352 355 356 356 358 358 360 359 359 360 360 362 360 361 364 362 361 359 357 356 356 356 353 353 354 355 356 356 356 357 356 358 360 362 361 364 367 369
320 314 314 317 317 316 314 316 318 316 320 321 320 319 319 320 319 325 327 330 334 328 324 328 327 328 330 331 332 334 335 334 335 334 334 334 334 333 334 336 336 338 340 342 343 346 347 349 352 354 354 358 356 358 359 358 359 360 359 361 361 360 361 362 361 360 357 358 358 355 354 352 352 354 353 354 355 356 356 362 362 362 362 366 370 368
313 312 315 318 317 314 313 314 317 315 313 320 320 319 319 319 325 329 330 333 335 331 323 327 324 324 328 330 331 332 333 336 338 337 336 336 335 334 334 336 337 337 339 341 343 345 346 348 350 353 354 356 358 358 357 359 359 360 360 363 364 362 360 361 363 362 359 360 360 359 357 356 354 358 359 356 356 357 356 359 361 362 364 367 368 369
306 311 318 320 317 313 311 311 314 314 314 315 316 316 316 322 319 316 328 331 333 328 324 326 325 324 330 332 330 333 335 337 340 341 340 339 335 335 334 336 336 336 338 339 341 341 343 347 350 353 354 356 356 358 357 357 358 359 362 363 365 364 362 362 363 362 364 363 362 363 362 362 360 358 362 364 360 359 358 357 360 364 365 366 367 368
309 314 320 319 316 312 310 310 311 312 311 313 314 315 316 320 321 319 322 328 330 329 330 327 321 321 324 325 327 331 334 334 335 338 339 339 340 339 337 337 338 336 338 339 340 341 342 345 348 351 353 354 355 355 357 357 356 355 360 364 365 365 364 363 363 364 365 363 361 360 361 363 363 363 361 358 356 359 359 357 359 360 364 365 367 367
312 315 321 317 314 311 310 309 310 311 309 311 312 314 319 321 322 323 325 324 321 320 325 322 311 313 321 323 325 330 331 329 333 334 337 337 338 338 335 335 338 339 340 339 339 340 342 345 348 352 353 351 352 354 357 356 356 358 359 364 366 365 365 364 365 367 366 362 358 356 353 352 354 353 354 352 352 353 355 352 356 361 362 362 366 365
313 314 316 315 312 310 310 310 312 312 309 308 309 315 314 317 324 322 321 321 315 313 322 328 313 306 320 321 324 326 327 328 332 332 334 336 337 337 336 335 336 336 337 340 340 341 340 344 346 349 351 351 351 354 357 357 358 359 361 365 365 366 366 366 366 368 366 364 362 359 356 354 353 351 352 357 355 354 354 357 356 359 361 363 362 365
313 311 314 316 313 311 309 308 311 311 309 307 315 314 310 311 317 316 316 316 317 326 325 326 321 311 311 317 326 330 327 326 327 330 335 335 337 336 337 336 337 336 337 338 339 340 341 345 346 347 350 350 351 353 355 356 357 360 363 364 365 365 365 366 368 367 365 365 364 363 359 356 355 352 355 358 360 359 359 358 357 358 359 364 364 364
311 309 310 310 312 311 309 312 313 313 310 310 315 313 311 313 316 316 315 315 318 317 312 317 321 312 310 320 329 327 320 322 324 327 331 334 336 336 336 336 337 336 337 338 338 340 340 344 345 347 348 350 352 352 354 355 358 360 363 364 364 365 365 365 367 366 365 367 364 362 360 357 357 358 357 357 359 359 359 358 358 359 360 362 365 365
312 312 311 312 311 309 313 315 312 312 310 314 316 316 318 318 318 317 315 315 317 312 309 314 320 310 310 318 321 327 325 322 324 327 329 331 334 336 336 336 338 338 339 338 339 339 341 343 344 346 349 350 351 352 355 355 357 360 362 362 363 364 364 365 367 367 366 366 365 363 361 359 358 359 360 360 357 359 359 359 359 360 359 358 360 364
313 315 316 312 310 313 315 315 313 312 313 319 317 316 316 317 319 319 317 317 314 306 310 317 319 313 307 316 318 318 320 326 328 328 331 332 334 337 338 336 337 337 337 338 339 339 341 343 344 345 347 349 351 354 354 353 356 358 360 361 362 363 363 365 366 366 366 365 364 363 362 361 362 359 360 358 358 358 359 359 359 359 360 359 359 360
309 311 310 312 314 313 312 309 311 313 315 316 314 313 314 316 317 315 314 318 307 304 313 319 318 316 305 312 322 326 331 330 329 329 331 332 332 335 338 338 337 338 338 338 338 337 339 342 344 345 346 349 351 353 353 352 355 356 359 360 361 362 363 364 364 365 364 363 364 365 364 363 364 363 358 359 358 359 360 361 360 362 361 361 361 361
306 307 311 311 315 312 310 308 309 311 316 314 314 313 306 306 310 302 310 303 304 304 310 319 319 313 311 319 326 329 328 329 332 333 334 334 332 334 338 340 339 339 339 339 339 338 338 340 342 344 347 350 353 354 354 351 353 356 358 360 359 360 362 363 363 363 365 364 364 363 364 364 366 365 363 361 362 362 360 362 362 362 362 363 362 360
303 309 309 309 310 313 311 304 305 305 312 312 310 309 305 303 301 298 302 306 306 312 317 318 321 313 318 320 323 326 329 331 333 334 337 337 336 334 339 342 340 340 339 339 339 340 339 340 342 345 348 351 354 355 354 352 353 356 357 360 359 360 362 363 363 363 363 364 365 365 365 365 366 366 365 364 362 362 363 363 363 362 361 364 362 361
296 297 303 307 303 311 309 308 309 308 311 312 315 311 308 307 302 298 302 299 301 307 314 321 313 310 312 319 327 328 330 332 333 335 337 338 338 337 339 343 343 343 343 341 339 339 339 340 344 345 348 352 354 353 352 353 355 358 358 360 360 360 361 362 362 363 363 363 364 365 365 366 367 364 364 364 364 364 363 362 362 364 362 361 363 363
299 300 306 310 310 310 307 311 311 310 312 315 316 316 309 307 312 304 307 307 307 308 310 313 313 320 317 327 330 333 333 332 334 334 335 337 339 338 337 339 340 343 344 343 341 340 341 342 344 345 348 352 353 355 353 353 357 358 359 362 361 359 361 361 362 363 363 363 363 365 366 365 367 366 365 365 367 367 366 365 364 364 365 364 364 366
300 298 306 307 310 309 309 311 310 312 304 311 313 307 311 317 312 309 309 311 313 312 307 317 315 319 325 326 326 329 329 330 332 332 334 336 338 339 337 337 339 342 345 344 342 341 342 343 345 345 348 350 352 352 352 356 358 360 360 360 361 361 360 360 362 362 362 363 363 363 364 365 366 364 364 361 362 361 365 367 365 364 364 366 368 366
300 299 306 305 304 309 312 311 311 311 313 312 306 311 318 319 317 311 303 307 305 302 306 313 310 315 313 310 327 327 327 330 330 331 332 334 337 336 337 337 339 340 342 345 344 344 344 344 345 345 347 349 351 352 354 358 359 361 360 359 360 359 360 358 359 360 360 361 361 363 363 365 365 362 361 362 362 363 365 366 367 367 365 365 365 365
306 299 303 306 306 308 311 310 308 311 313 311 312 320 309 305 304 310 307 301 301 300 305 311 312 313 317 314 322 323 325 327 330 331 332 332 334 335 336 338 341 343 344 343 341 342 343 344 345 348 348 349 351 354 355 357 358 359 360 357 356 357 357 357 355 358 360 361 359 359 361 362 363 363 363 362 365 365 364 363 363 365 365 365 368 367
306 299 301 307 306 307 309 307 300 304 310 313 317 313 316 313 309 307 307 308 308 302 302 307 312 308 319 320 324 324 327 327 329 330 330 333 334 335 336 339 341 342 343 343 343 342 343 344 346 349 350 348 350 352 354 357 357 356 356 357 355 355 357 357 354 357 358 359 358 356 359 362 364 365 363 364 365 362 362 363 363 364 362 365 366 366
305 306 298 303 308 307 301 305 303 305 304 306 307 308 312 311 315 314 312 308 306 305 304 304 304 312 322 328 327 327 328 329 331 331 333 334 336 337 338 338 342 342 344 344 344 343 344 345 346 349 351 350 352 354 355 357 357 357 355 355 356 356 356 355 354 355 358 358 359 359 359 358 361 361 362 362 363 363 363 363 365 363 364 367 365 366
305 304 299 302 302 301 303 308 307 308 308 307 305 305 309 307 307 303 303 312 310 308 301 303 303 317 323 329 329 329 330 329 332 332 334 335 336 338 338 340 342 344 346 346 346 345 345 345 346 347 350 352 352 354 355 356 355 358 355 355 356 359 360 359 356 356 358 359 358 357 357 356 356 358 360 359 361 360 361 362 363 365 365 364 366 367
309 307 304 301 302 302 305 309 311 311 311 310 309 306 311 311 310 307 298 304 308 309 312 310 307 312 325 329 329 330 329 331 331 331 333 335 338 338 339 342 344 344 346 348 347 346 348 350 349 347 349 350 352 354 354 357 355 355 355 357 358 360 362 361 360 358 361 358 357 358 357 356 355 356 357 356 357 355 357 360 362 364 364 361 362 366
309 304 301 302 306 308 308 310 311 311 311 309 309 310 310 308 310 308 308 311 308 310 307 307 304 314 323 329 330 332 331 331 332 331 331 334 337 337 339 342 340 343 346 349 350 350 350 352 353 352 349 349 351 354 355 356 356 354 354 356 359 360 362 361 362 361 362 361 358 356 356 356 355 353 353 353 353 354 354 355 357 360 361 360 360 361
303 307 304 299 299 301 303 307 306 309 309 306 306 308 310 312 311 312 312 314 308 309 309 305 301 312 323 328 330 331 329 328 329 332 333 333 335 337 339 338 340 344 345 346 346 347 349 349 350 350 350 350 350 353 354 355 356 356 357 359 361 363 364 363 365 364 365 363 359 357 355 354 354 353 352 351 351 352 352 352 353 357 357 357 358 361
307 306 304 297 295 292 292 293 296 300 303 306 308 308 309 310 311 309 305 311 302 310 311 307 305 318 324 327 327 328 327 328 330 331 333 335 335 335 337 339 341 341 342 346 347 346 346 348 349 350 351 351 350 351 352 355 355 355 357 359 362 362 362 364 366 367 366 364 360 359 357 356 355 352 352 351 350 350 350 351 351 353 355 355 356 360
307 308 308 306 303 299 301 307 308 308 306 302 305 307 308 310 311 311 310 306 303 309 310 311 313 317 318 321 323 325 326 326 328 330 331 331 333 334 335 336 338 339 340 341 344 347 347 347 348 349 351 353 353 351 351 352 353 352 355 360 361 362 362 364 366 367 366 365 363 362 360 358 357 355 353 353 352 352 353 352 352 352 352 353 353 355
309 304 306 307 307 305 303 306 305 308 305 305 305 306 308 308 309 309 306 306 313 308 304 316 323 317 319 321 322 323 325 327 329 330 329 330 331 332 334 336 336 339 340 340 341 343 344 345 346 348 349 350 352 354 353 353 355 355 357 358 360 362 362 364 365 365 364 365 363 365 364 363 361 362 360 359 358 356 355 355 354 354 354 354 354 353
306 302 304 305 304 304 304 305 306 307 307 307 306 307 306 308 309 308 309 311 311 307 304 320 323 317 322 322 322 324 327 327 328 329 330 330 330 332 334 334 334 335 337 338 339 342 345 344 345 347 349 350 350 350 350 351 353 355 357 358 361 361 361 362 362 361 362 362 362 364 367 367 366 364 363 364 364 361 358 356 358 358 359 359 358 353
310 303 305 305 305 305 306 306 307 308 308 308 308 308 309 309 309 309 310 312 313 313 316 317 323 321 323 323 324 325 328 329 330 331 331 331 329 331 331 331 330 330 331 334 337 339 343 344 343 344 346 346 344 343 347 350 350 352 353 354 356 357 359 360 360 359 359 359 361 364 365 365 364 363 363 363 362 364 364 360 359 357 358 358 359 358
310 302 307 305 305 304 306 308 308 309 309 308 311 313 313 311 311 312 311 313 315 315 314 317 322 322 326 328 327 328 330 331 329 328 328 329 329 330 331 329 329 329 331 331 333 337 337 337 338 338 340 340 339 340 339 341 345 349 351 353 354 356 358 359 358 359 358 360 362 363 364 364 362 362 361 362 363 364 363 362 362 360 361 360 360 361
309 304 307 305 302 301 305 306 307 308 309 309 309 310 310 311 309 311 311 317 313 313 319 320 319 319 324 328 328 327 327 327 326 327 327 328 329 330 329 328 328 329 329 328 329 330 332 333 333 334 334 335 336 336 335 337 339 340 342 345 346 349 352 353 353 353 354 355 359 361 361 361 361 361 361 362 362 363 364 364 365 365 365 364 361 364
309 305 304 303 302 299 304 306 306 306 307 304 308 310 310 313 317 318 319 321 322 320 319 313 314 325 325 327 324 324 325 326 326 326 327 328 330 330 329 328 328 329 329 328 327 327 329 329 330 331 331 331 332 332 333 334 334 334 337 338 339 341 342 344 347 349 348 350 354 356 358 359 360 361 360 360 360 361 362 363 363 363 362 363 364 364
310 307 304 306 299 300 303 304 306 303 296 298 311 316 312 311 316 316 317 319 320 324 322 326 326 326 326 325 323 322 324 324 325 328 330 329 328 328 328 328 328 328 329 330 329 328 327 328 328 329 329 328 330 332 332 332 331 332 334 337 339 340 339 339 341 343 345 347 348 350 353 356 357 357 357 360 360 360 360 359 360 361 362 363 364 363
307 308 304 306 300 300 303 304 300 294 295 309 316 319 319 318 320 319 319 319 321 323 324 324 324 324 325 325 325 325 326 326 327 328 330 331 331 329 327 326 326 328 329 329 328 328 329 329 328 328 327 328 329 329 330 329 330 330 331 332 333 334 336 337 338 339 340 340 342 346 348 349 350 352 352 352 354 355 355 356 357 357 358 359 359 360
307 306 305 303 304 303 300 300 290 297 308 312 311 313 319 321 320 319 316 319 322 323 323 322 323 324 325 325 325 326 326 326 328 329 330 331 331 328 326 325 324 325 325 325 327 328 330 330 329 328 326 328 328 328 328 327 329 329 328 330 330 330 330 331 331 332 334 334 335 337 341 344 344 344 345 348 348 350 350 351 352 354 357 358 358 358
309 308 305 301 305 297 299 299 300 307 307 308 308 308 311 312 312 313 311 316 322 324 323 322 322 323 323 324 325 326 326 326 323 324 328 329 329 329 327 324 322 322 323 325 326 327 329 329 329 331 330 329 329 329 328 329 328 328 327 328 328 328 329 329 329 329 330 331 332 335 337 339 340 341 342 344 346 345 345 345 348 352 355 355 355 354
310 308 308 300 299 306 298 297 299 299 296 301 307 310 312 313 315 316 317 314 322 324 325 323 322 322 322 323 323 324 325 321 317 318 325 327 329 327 326 326 326 325 325 325 326 327 328 327 327 329 327 327 327 328 328 329 329 328 326 326 327 328 327 327 327 329 331 331 332 334 337 338 340 342 343 344 344 345 348 349 350 349 350 349 349 350
308 310 310 303 300 299 300 297 297 292 299 306 307 309 312 314 314 316 316 309 319 324 325 324 322 323 323 322 322 323 321 316 316 319 325 328 328 327 325 325 325 326 327 326 325 324 325 327 327 327 328 328 326 328 330 329 328 326 326 326 326 326 327 327 327 328 330 331 333 335 336 339 341 341 341 341 342 344 344 345 345 345 345 346 348 347
305 305 305 301 301 299 299 298 296 302 299 304 306 310 312 314 316 314 302 301 318 323 324 324 322 322 322 324 324 322 320 315 316 321 327 328 329 329 326 325 326 327 328 328 328 328 328 328 327 326 326 326 327 327 329 328 327 327 326 325 325 324 325 327 328 330 331 332 334 336 339 341 340 341 341 340 340 343 343 345 344 343 344 345 346 345
302 303 303 300 300 300 300 299 301 301 305 307 309 312 314 313 312 305 294 303 316 324 325 326 324 324 325 324 325 322 325 325 325 327 328 329 329 329 329 330 330 329 328 328 328 330 328 327 326 324 324 326 327 326 326 326 325 325 325 325 325 324 326 328 330 331 332 332 332 333 336 336 336 336 338 338 339 340 340 340 339 340 339 339 340 340
301 302 302 306 302 299 299 297 300 303 307 311 315 314 313 311 305 303 308 317 316 324 326 327 325 326 326 325 324 323 325 328 327 327 327 327 327 328 328 328 328 328 329 329 329 328 326 325 326 325 324 326 326 326 326 327 325 324 323 323 324 325 327 328 329 330 332 332 332 333 333 334 335 335 334 335 335 338 337 339 339 337 338 340 336 336
301 301 298 299 303 303 302 299 297 291 308 314 314 315 315 310 309 314 314 321 323 327 326 327 327 327 327 325 327 326 325 325 326 326 326 326 325 326 326 325 326 325 325 326 326 325 324 323 322 322 323 323 323 325 326 327 325 324 323 322 323 326 327 328 328 329 331 332 333 334 333 333 334 335 335 334 335 335 334 336 338 339 339 337 335 335
308 301 299 301 305 298 297 295 294 304 311 313 315 309 312 313 314 315 316 319 325 327 327 328 328 328 327 326 325 324 325 324 325 326 327 327 326 326 326 327 326 326 325 324 323 323 324 323 323 322 324 324 325 326 325 325 324 324 323 322 325 326 327 327 327 328 328 330 331 332 333 333 332 333 336 337 337 335 334 334 335 336 336 336 335 334
308 306 309 301 308 307 302 304 310 313 313 314 315 315 315 317 318 316 315 317 324 326 330 329 329 328 327 326 324 324 324 323 324 326 325 326 325 326 326 326 325 324 323 322 321 323 323 322 322 321 321 322 324 325 326 325 323 323 322 323 325 326 325 326 326 326 326 328 330 331 331 331 332 333 334 336 335 334 333 333 335 334 335 334 332 332
310 313 313 312 307 312 313 314 315 314 315 314 315 316 316 317 319 319 319 321 324 327 329 329 329 328 328 328 325 323 323 324 324 323 324 324 324 327 327 326 325 325 324 323 323 324 323 323 323 322 321 321 322 322 323 323 323 322 322 324 325 327 327 327 326 326 326 326 327 329 330 328 329 331 333 333 334 333 333 333 331 330 331 331 330 331
310 311 311 306 310 306 299 314 312 313 315 316 315 317 318 318 319 321 323 326 325 326 327 330 330 329 328 328 327 323 323 324 324 324 325 325 324 324 325 325 325 325 323 323 324 323 322 322 321 320 320 319 320 320 319 320 320 322 323 323 323 326 328 328 327 326 326 326 325 328 330 329 328 328 329 330 330 331 332 332 331 331 330 330 329 330
306 313 309 308 309 307 307 312 313 316 317 317 316 315 316 318 320 323 323 325 327 328 328 329 329 327 328 326 326 324 324 324 325 324 324 325 324 324 325 325 325 325 325 325 324 324 323 322 320 320 320 319 320 320 320 319 319 321 322 321 323 325 327 327 327 325 325 325 326 326 328 327 324 328 328 328 330 328 329 330 331 330 330 329 329 328
312 314 304 309 306 308 313 314 315 316 315 316 317 318 318 318 319 322 325 325 325 325 326 327 328 328 327 324 325 325 323 323 324 324 322 323 324 324 325 325 326 325 325 324 324 324 324 323 321 321 321 320 321 321 320 320 319 320 321 323 325 326 325 324 324 326 325 325 325 325 327 327 327 326 327 328 330 328 330 329 329 329 331 330 332 331
310 305 308 308 303 303 306 310 315 308 308 312 315 318 319 320 320 320 321 322 323 324 325 324 325 327 327 326 325 326 323 324 325 326 323 324 324 324 325 325 326 326 325 325 325 325 324 323 322 321 321 321 322 321 320 319 319 320 319 323 325 325 324 324 324 324 324 325 324 324 324 325 325 325 326 325 328 328 327 319 308 317 330 328 318 305
312 314 311 305 305 304 311 316 317 315 314 315 317 320 322 321 320 318 318 318 320 322 324 324 323 324 325 326 327 324 323 323 323 323 322 323 325 326 326 325 325 324 324 324 323 323 323 323 322 322 321 322 322 321 320 319 319 319 320 323 324 324 324 324 323 322 322 323 323 322 323 322 323 324 324 326 326 327 326 326 325 300 301 313 311 304
Wind_Speed
11 11 13 10 10 11 10 8 10 2 4 4 7 4 6 5 5 8 7 9 9 5 8 11 10 10 9 11 12 12 11 12 12 13 12 13 13 14 13 13 12 12 12 12 12 12 11 10 9 8 8 7 7 7 8 8 7 7 6 7 7 6 6 6 6 5 5 6 6 6 6 6 6 5 5 4 5 5 5 6 6 5 5 4 4 3
12 10 13 14 12 5 6 8 4 3 4 7 8 7 5 6 4 6 7 9 7 8 9 8 8 9 8 9 11 9 10 13 14 14 14 14 14 13 14 14 13 12 10 13 12 12 11 10 10 9 8 8 9 8 8 8 7 7 7 7 7 7 6 5 5 5 5 5 5 5 5 6 7 6 6 5 5 5 6 6 5 5 5 4 3 3
12 13 13 16 6 1 3 5 4 6 2 6 5 5 5 6 8 7 7 7 8 7 5 9 9 8 8 9 10 14 12 11 12 12 13 14 14 12 13 13 13 13 12 13 13 12 11 12 11 9 8 8 8 8 8 8 8 8 7 7 7 6 7 6 6 5 5 4 4 3 4 4 6 5 5 5 5 5 7 6 5 5 5 4 3 3
12 12 14 11 4 7 7 5 6 6 5 5 7 7 6 7 7 3 5 7 6 5 4 9 7 6 6 7 11 11 12 3 3 10 11 11 13 13 14 13 13 14 13 14 14 14 13 12 11 9 8 8 8 8 8 8 8 7 7 7 7 7 7 7 6 5 5 5 5 3 3 4 4 5 4 5 5 5 7 7 6 5 5 4 4 4
10 11 12 13 7 8 8 8 8 7 7 5 3 7 8 8 6 5 8 7 6 2 2 7 5 3 7 8 7 11 10 5 1 5 9 11 10 10 11 12 13 14 13 13 14 14 13 13 12 10 9 9 9 9 9 9 9 6 9 8 8 7 7 6 7 6 6 6 5 4 5 4 5 5 5 6 6 6 6 6 7 6 6 5 4 4
10 3 7 10 10 8 9 9 10 8 8 7 4 1 1 2 3 8 13 10 6 5 7 11 5 4 7 9 11 11 10 10 8 9 10 12 12 12 13 13 13 13 13 14 14 14 14 13 12 10 10 10 9 9 9 9 9 7 8 8 8 7 7 7 8 7 6 6 6 6 6 6 6 6 6 7 7 7 7 7 7 7 7 6 5 4
7 9 12 13 10 9 9 8 10 9 6 7 8 6 3 4 3 8 10 8 6 5 10 10 6 4 4 9 10 10 12 11 10 12 12 12 12 12 11 12 13 14 14 14 13 13 14 13 12 12 10 10 10 9 9 9 9 8 8 8 8 7 7 7 8 8 6 6 5 6 6 5 5 5 5 5 6 6 6 5 7 6 6 5 5 5
6 10 12 12 12 11 9 9 6 8 7 3 11 6 4 6 7 7 7 8 1 8 10 7 1 1 2 6 9 11 11 12 13 13 13 13 13 13 12 12 13 13 14 14 14 14 14 12 12 12 12 10 9 9 9 9 9 9 8 8 8 6 7 7 8 8 6 6 5 5 5 5 4 5 6 6 5 5 4 5 7 6 5 5 4 4
12 9 11 13 13 11 11 10 7 10 9 6 6 8 8 7 8 8 7 6 3 4 4 6 6 1 1 1 8 13 11 10 14 15 14 14 13 14 14 13 13 14 15 15 14 15 14 14 13 12 12 11 10 10 10 9 9 9 9 8 8 7 7 7 9 8 7 5 5 5 5 4 3 4 5 5 5 5 5 6 5 5 5 5 5 4
9 10 10 11 12 11 9 8 1 7 10 4 4 6 5 4 6 7 6 5 4 6 6 9 10 4 2 3 5 9 12 15 16 15 15 14 12 13 14 14 14 13 14 15 14 14 14 14 13 12 11 11 10 10 9 9 9 9 8 9 9 8 7 7 9 8 8 7 5 5 4 5 4 4 4 4 5 5 5 5 5 5 4 5 6 5
5 3 3 8 10 10 12 7 5 7 6 6 6 6 5 5 5 4 4 4 4 6 7 13 14 8 3 5 8 10 9 10 10 10 9 11 12 13 13 14 13 13 13 13 14 14 14 13 13 13 11 11 10 9 10 10 10 10 9 10 10 9 8 8 8 8 8 7 6 5 5 5 5 5 5 5 6 5 5 5 6 6 5 5 5 5
7 9 8 8 7 4 4 4 4 6 6 8 7 6 5 4 4 5 4 4 6 6 4 11 13 13 6 3 6 9 6 13 13 13 13 12 13 13 13 13 14 14 13 13 13 14 15 14 13 11 11 11 10 10 10 10 10 9 10 10 10 10 9 8 9 9 8 7 6 5 5 5 4 5 5 5 6 6 6 6 6 5 5 5 5 5
8 9 8 7 7 10 10 10 7 8 10 10 10 9 9 5 5 7 6 8 9 2 0 7 11 9 7 2 6 13 9 9 13 11 12 12 14 14 13 14 13 13 13 13 13 13 14 13 13 12 11 11 11 10 11 11 10 10 10 11 11 11 10 9 9 9 9 8 7 6 6 5 4 4 4 5 5 5 5 5 5 6 5 5 5 5
8 10 11 10 9 11 11 12 9 10 11 13 12 11 11 8 8 8 9 5 7 10 10 6 8 6 6 5 2 9 10 6 9 12 12 13 13 15 15 13 12 12 13 13 13 13 12 12 12 11 11 12 11 12 12 11 10 10 10 11 12 11 11 10 9 10 9 9 8 7 6 5 4 4 4 4 5 5 5 4 5 6 5 5 6 6
9 11 13 13 11 12 13 12 7 8 11 12 10 12 10 7 7 8 6 8 6 6 6 8 7 3 7 4 4 5 5 8 6 9 11 14 14 14 13 11 13 12 11 11 13 14 13 12 12 11 12 12 11 12 12 11 10 10 10 11 12 12 11 11 11 9 10 9 9 8 7 6 5 5 4 4 3 3 4 4 5 4 4 5 5 4
11 6 5 20 10 14 15 15 9 9 8 11 10 8 11 11 6 7 2 5 5 6 6 8 3 4 3 9 6 5 6 7 8 8 10 13 13 13 11 11 11 11 11 11 12 13 14 13 13 12 12 12 11 12 12 12 11 11 11 12 12 12 12 12 11 10 10 9 8 9 8 8 6 4 4 3 3 3 3 4 4 4 4 3 3 3
4 8 6 12 14 11 15 14 12 9 10 11 11 13 11 6 10 6 4 4 5 1 6 4 5 6 9 8 7 7 7 7 10 11 11 12 14 14 13 12 12 11 10 10 11 11 13 13 13 12 12 11 11 12 12 12 13 13 12 12 13 12 12 12 11 11 10 9 9 10 9 8 8 7 6 6 6 6 5 4 4 4 4 4 3 4
4 5 10 11 15 12 12 15 13 14 10 5 13 11 10 6 7 7 7 4 7 8 4 7 8 6 7 3 7 8 8 8 10 12 12 12 14 15 13 12 11 12 11 11 11 11 12 12 13 12 11 12 12 13 14 14 13 12 12 13 13 13 13 12 12 11 10 10 9 9 10 9 9 8 7 6 6 6 5 6 4 4 4 4 4 4
5 4 9 11 12 13 11 12 14 13 16 9 7 9 12 9 12 7 5 6 8 8 6 5 7 6 6 6 9 9 9 10 11 11 12 12 14 15 14 13 13 12 10 9 10 10 10 11 12 11 12 12 13 13 13 14 13 12 12 13 13 14 14 13 11 11 9 10 8 8 9 10 9 8 8 7 6 6 6 6 6 5 4 5 4 4
4 8 7 8 11 13 10 11 13 13 13 12 7 12 11 8 8 7 7 3 4 6 7 6 6 6 7 6 11 11 9 10 11 11 11 11 13 13 13 14 11 10 7 8 9 10 10 11 11 11 11 12 12 12 12 13 12 14 13 13 13 13 12 12 12 11 11 11 10 9 9 10 9 9 8 7 7 7 7 7 6 6 6 5 5 6
5 3 6 10 7 12 12 11 12 12 13 13 12 9 7 8 6 5 6 8 5 5 5 4 5 4 7 5 7 8 8 9 9 9 8 8 11 13 15 14 11 9 7 5 7 8 10 10 10 10 10 10 10 10 11 12 13 12 12 13 13 13 13 13 12 12 11 10 10 10 10 10 10 11 9 9 8 8 7 7 6 6 5 5 5 5
6 6 6 9 10 11 10 12 14 14 13 12 12 12 11 11 11 10 9 6 7 5 3 5 4 5 4 1 2 7 5 7 9 7 7 8 10 12 12 13 12 8 7 6 5 6 8 9 9 9 8 8 9 10 11 11 11 12 12 12 12 12 11 12 12 11 10 10 9 11 10 10 10 10 9 10 9 9 8 7 7 6 5 6 6 6
6 2 7 6 8 11 8 13 15 8 10 15 12 13 13 12 10 10 9 9 8 8 4 5 5 3 3 0 3 6 5 5 4 5 4 4 8 10 11 13 11 9 6 5 5 3 3 5 7 7 8 9 10 10 11 10 11 12 12 11 11 12 12 12 11 10 9 10 10 11 10 9 10 10 11 11 10 10 9 9 8 7 7 7 7 7
1 6 6 8 4 1 3 3 5 8 8 13 14 14 12 14 13 11 10 5 7 8 8 7 6 5 5 1 3 4 5 6 5 5 5 3 5 8 7 11 12 9 7 5 4 3 2 2 3 4 7 8 8 9 10 10 9 10 11 11 11 12 12 11 10 10 10 10 11 11 10 10 10 11 11 11 10 11 10 9 9 8 8 7 7 8
8 5 7 7 7 7 6 5 10 11 10 11 10 12 12 14 16 13 11 4 7 9 9 7 7 2 6 7 5 6 6 6 7 6 6 6 4 5 9 11 11 11 8 7 5 4 3 3 3 4 5 6 7 8 9 9 9 9 9 10 10 10 10 9 9 9 10 10 10 10 10 11 10 10 11 11 10 11 10 9 9 8 9 8 7 7
7 4 7 9 11 9 9 12 13 13 14 11 13 15 16 15 17 11 10 7 6 6 7 7 5 6 8 8 9 8 7 6 6 6 5 5 6 5 5 6 7 8 9 10 8 6 6 4 3 4 5 6 7 7 8 8 9 9 8 9 9 8 9 9 8 9 9 9 9 9 10 10 10 10 11 11 10 10 10 10 9 9 9 9 8 7
3 3 6 6 6 5 3 4 4 5 12 15 11 9 12 14 12 11 11 11 11 7 8 10 6 7 9 11 10 10 8 8 8 8 7 7 6 7 5 5 5 6 5 6 8 8 7 6 6 5 5 5 6 7 7 8 9 9 9 9 9 9 9 9 9 9 8 8 9 9 10 9 9 9 10 10 9 9 9 9 9 9 9 9 9 9
4 6 4 5 7 5 4 4 4 4 10 13 13 15 14 14 14 13 13 10 5 8 9 6 6 8 10 13 12 11 9 8 7 8 8 6 5 5 6 5 5 5 5 4 4 7 9 9 7 6 8 8 7 7 6 6 6 8 9 9 8 9 9 8 9 9 8 8 8 8 9 9 8 8 7 7 8 8 8 8 8 8 8 8 9 9
5 6 2 7 5 3 3 2 3 6 10 10 13 13 16 15 13 14 12 12 10 11 9 5 8 7 9 12 12 11 10 10 9 9 8 8 6 6 6 6 4 3 3 4 6 8 10 10 10 10 9 8 10 10 8 5 4 7 7 7 7 8 8 8 9 10 9 9 8 7 7 7 7 7 6 6 5 7 8 8 8 7 7 7 8 8
4 3 1 3 2 3 3 5 6 7 8 7 3 4 8 12 14 15 14 10 9 5 4 4 7 3 10 13 12 12 11 10 10 9 9 9 8 8 8 8 7 6 5 2 2 5 6 7 7 7 10 10 10 9 7 6 7 6 6 7 6 5 6 6 8 9 9 9 8 7 7 6 6 6 7 7 8 8 8 8 8 9 9 8 8 7
4 3 6 2 4 3 4 5 7 7 8 8 7 5 2 5 4 5 6 5 3 5 9 12 10 9 9 12 13 12 11 10 9 8 9 9 7 8 9 9 8 7 7 8 7 4 7 5 7 5 9 10 10 10 8 7 8 6 7 6 5 4 5 7 7 7 7 7 7 6 6 6 6 6 7 7 7 7 8 8 7 7 7 7 7 7
6 4 5 4 6 5 2 5 7 8 11 10 8 8 7 0 9 7 8 6 10 10 10 10 9 9 11 13 13 12 11 10 10 9 8 8 9 9 10 9 9 8 9 10 10 10 10 9 6 9 10 10 10 9 9 7 8 7 7 8 8 8 8 7 5 4 5 4 4 4 5 5 6 7 7 7 7 7 6 7 7 6 6 6 7 7
2 6 4 3 6 6 1 5 8 10 7 9 6 10 7 2 3 2 4 3 5 1 7 7 2 9 13 13 14 13 12 11 11 9 8 9 9 10 10 10 10 11 11 11 12 12 11 10 9 9 10 9 9 9 9 8 10 10 8 7 7 8 8 7 6 6 5 5 5 4 0 4 6 7 7 6 6 6 6 7 7 7 7 7 6 6
3 6 6 1 6 6 2 3 6 8 10 4 6 6 4 4 4 0 5 5 7 7 5 7 9 13 14 13 13 13 12 11 10 8 8 9 9 11 11 11 11 11 13 13 13 12 11 9 10 10 11 11 10 10 9 10 12 9 7 6 7 9 9 9 8 7 7 6 5 4 3 1 3 4 4 4 4 4 7 7 7 6 6 6 6 5
4 6 6 3 5 5 0 5 8 10 5 7 3 5 3 1 2 7 7 7 5 4 5 9 11 13 13 13 12 11 12 12 11 11 10 10 10 11 11 11 11 11 13 13 14 14 13 12 11 11 11 10 9 9 9 9 8 8 10 8 8 10 12 11 10 9 9 9 7 6 6 4 4 5 6 6 4 5 3 2 3 4 3 4 5 6
4 5 5 5 4 1 6 2 5 4 4 3 4 4 3 1 5 4 9 7 6 5 5 7 9 11 13 13 13 12 13 13 12 9 9 9 10 11 11 10 10 11 12 12 14 13 14 13 11 11 11 11 13 12 11 10 7 9 8 7 9 10 9 8 9 8 8 9 8 8 8 6 5 6 5 5 4 4 5 3 2 2 1 2 3 2
5 1 4 3 1 7 7 4 3 3 5 4 3 4 6 4 5 5 1 7 5 2 3 6 10 13 14 14 14 14 15 14 11 8 8 10 11 10 12 12 12 12 11 11 11 12 12 12 11 11 11 10 11 13 12 9 8 9 9 9 9 10 9 9 9 8 8 7 7 8 8 7 6 4 6 6 5 4 1 2 1 3 1 1 2 2
4 4 2 4 3 1 7 7 6 5 5 4 4 3 2 3 4 3 3 7 3 3 4 9 12 15 14 13 13 15 15 13 10 8 8 11 11 12 11 11 11 12 12 12 10 11 11 12 11 9 10 12 13 11 10 11 11 10 10 9 8 9 9 9 8 7 7 7 7 7 6 5 4 4 5 5 6 4 3 2 2 6 7 7 6 5
0 1 2 6 2 4 5 7 4 7 2 5 4 5 5 3 3 1 4 5 3 0 6 9 13 14 13 14 16 15 12 9 9 9 10 13 14 14 12 11 12 12 13 12 11 11 11 10 11 11 11 12 12 10 10 11 12 11 10 8 8 8 9 9 6 6 5 6 5 5 4 4 4 7 8 7 7 7 7 6 5 5 6 7 7 7
2 4 6 8 6 5 5 7 5 3 3 1 6 7 7 6 4 5 3 4 5 2 6 10 13 13 13 14 14 12 9 8 10 11 14 15 15 15 13 14 14 14 13 13 12 11 11 10 11 11 11 11 11 10 10 9 10 10 9 9 8 9 8 7 6 5 4 5 4 4 3 4 5 6 7 8 7 7 6 5 5 5 5 7 7 6
2 3 5 8 8 6 7 3 4 6 5 5 7 9 7 5 5 3 3 5 3 3 7 12 12 13 14 14 10 5 6 5 11 16 17 18 18 16 14 13 13 13 13 13 13 12 10 9 9 10 10 8 8 9 9 8 9 9 8 8 9 8 6 5 5 5 5 5 5 5 6 5 6 7 7 7 6 6 6 5 5 5 6 6 5 5
4 1 2 2 5 8 8 6 4 4 4 6 8 6 2 2 2 5 4 3 4 4 6 11 12 13 13 11 8 6 4 9 16 15 16 17 17 17 16 15 13 13 12 12 12 10 9 10 10 10 10 8 7 7 8 9 9 7 7 8 8 7 5 5 5 5 5 6 5 5 5 5 5 6 6 6 5 5 5 4 4 4 5 4 5 5
4 4 5 6 1 2 4 4 6 3 5 10 14 4 7 4 5 4 4 2 1 5 6 9 10 12 12 10 6 6 7 14 15 15 15 14 15 15 15 14 14 13 12 12 10 10 10 10 10 10 9 8 8 7 7 8 9 7 7 7 6 4 4 4 5 5 5 5 5 5 5 5 5 5 4 5 6 6 5 5 5 5 5 6 5 5
5 4 3 3 3 4 8 7 2 4 5 9 9 5 6 5 3 3 4 4 3 4 6 7 8 10 10 8 8 8 10 13 12 13 13 13 14 14 13 12 13 13 12 11 10 10 10 10 10 9 9 8 7 7 6 6 7 7 7 6 3 3 3 3 4 4 5 4 4 4 4 4 5 5 4 5 4 5 5 5 4 4 3 3 3 3
7 4 5 4 5 4 5 5 4 4 4 5 6 5 5 5 3 4 3 5 2 5 5 6 10 11 10 9 10 9 9 12 14 9 9 10 11 12 12 12 12 12 11 11 10 10 9 10 10 10 9 8 8 6 6 5 6 7 7 5 3 3 3 3 3 3 4 4 4 4 4 4 4 3 3 3 4 4 4 4 3 3 3 3 3 3
1 4 4 2 7 8 10 8 5 4 5 6 6 5 6 6 4 2 2 1 2 4 4 5 8 11 12 11 10 7 9 12 13 13 12 11 10 9 10 11 11 11 11 11 10 9 10 10 10 10 10 8 7 7 6 6 6 6 5 4 3 3 3 3 4 4 3 4 3 3 4 5 4 3 3 2 2 2 2 2 2 2 2 2 3 3
3 2 4 4 4 4 4 4 7 6 5 7 7 8 8 8 6 4 2 3 3 3 4 5 9 8 10 12 11 10 12 12 12 12 11 10 12 12 11 11 11 11 11 10 10 10 9 9 8 9 9 8 6 6 6 6 6 5 4 3 3 3 3 3 4 4 4 3 4 3 2 3 3 4 2 1 2 2 2 2 2 2 1 2 2 2
5 2 1 5 1 2 8 6 6 7 8 8 7 7 9 10 10 8 5 4 5 4 4 6 8 10 11 12 14 13 7 5 10 10 11 10 9 11 10 10 11 10 10 10 10 10 9 8 9 9 8 7 6 5 5 5 5 5 4 4 3 4 3 3 3 4 4 4 3 3 3 3 2 1 3 2 0 0 2 2 2 1 1 1 1 2
3 4 2 1 4 7 8 5 4 6 10 10 10 9 8 8 8 8 7 7 6 6 5 4 3 7 10 14 14 10 11 12 12 12 12 11 10 10 10 11 11 11 11 11 10 9 8 9 9 9 8 7 5 5 5 5 5 5 5 4 4 2 3 3 3 3 4 3 4 3 2 2 2 1 2 3 3 4 6 6 4 2 4 6 5 5
4 2 3 4 6 5 3 5 1 4 5 7 9 9 9 9 9 9 8 8 8 7 5 5 5 2 6 14 15 11 10 8 7 5 8 9 12 12 12 11 11 11 11 10 9 9 9 9 9 9 8 6 5 5 5 5 4 3 4 4 3 2 3 3 2 3 2 2 3 3 3 2 3 3 2 2 3 5 6 8 9 9 5 4 7 8
3 6 5 3 5 5 6 6 6 8 9 8 7 8 8 8 9 11 11 9 8 7 6 5 4 4 5 8 12 16 14 12 13 13 11 8 9 11 12 14 13 11 10 11 11 11 10 10 10 9 8 6 5 5 5 5 5 4 4 3 2 2 2 2 2 1 2 2 3 4 3 2 2 3 2 3 2 1 3 5 6 9 10 9 5 5
Wind_Direction
169 200 189 198 206 199 204 215 213 339 283 237 215 221 188 173 122 90 130 156 161 149 218 188 202 155 173 178 173 184 184 191 176 169 173 171 169 171 170 166 171 170 172 164 165 166 169 165 166 164 164 168 162 163 155 168 164 159 158 144 145 143 142 150 149 156 155 154 145 148 158 154 155 155 151 162 152 154 144 143 144 153 153 153 153 149
188 207 200 203 197 182 201 216 226 262 245 220 208 202 176 154 137 139 133 154 152 208 184 178 180 157 167 179 167 186 206 192 181 173 172 171 175 173 172 165 170 171 165 165 165 168 170 168 166 166 167 171 169 170 169 173 169 164 165 154 149 149 149 153 152 147 154 160 156 159 170 156 148 156 169 159 162 154 132 144 148 164 144 156 160 157
197 211 193 201 173 247 256 244 232 244 198 201 229 192 191 148 139 95 120 153 156 220 160 165 187 169 167 170 182 186 202 196 189 180 173 171 173 175 174 167 166 172 170 168 168 170 171 170 170 169 171 172 173 176 175 174 171 168 170 157 154 158 155 157 153 160 159 155 152 158 149 160 143 157 164 151 151 150 145 153 160 152 155 166 160 159
195 207 201 192 174 219 207 223 219 226 258 194 193 205 218 141 166 123 145 165 161 236 173 177 172 147 158 177 189 193 205 194 265 189 183 173 175 178 177 170 169 170 172 170 172 173 172 171 173 174 174 172 175 177 179 180 177 175 175 162 161 155 161 155 156 161 151 140 132 123 142 134 150 144 131 133 147 160 154 155 160 162 165 177 169 173
196 194 189 190 192 212 213 195 211 220 208 215 242 183 216 167 225 143 163 151 140 97 152 157 158 167 182 179 192 190 200 230 239 193 194 184 181 180 175 172 172 171 171 170 175 176 173 174 177 178 177 175 180 182 180 186 178 185 173 168 164 158 160 158 154 157 147 138 144 140 139 144 125 142 154 155 159 160 164 164 171 166 175 178 181 171
181 68 162 189 194 206 222 203 213 220 224 177 189 4 159 272 140 108 137 147 180 166 167 158 187 206 179 202 187 161 171 195 201 203 204 187 185 184 178 175 172 175 174 177 176 176 173 174 174 178 180 184 182 184 183 188 177 183 171 166 166 160 161 161 154 156 159 159 154 154 160 160 162 159 167 172 164 166 170 175 167 160 178 178 181 176
176 152 196 192 193 203 215 228 200 223 242 226 141 140 214 214 146 150 162 190 182 214 153 191 212 183 176 202 195 164 181 185 201 210 201 189 187 185 186 179 176 180 172 180 176 179 174 174 174 178 185 187 185 181 180 185 176 182 172 169 171 163 162 159 158 160 165 163 164 169 172 169 169 163 156 167 172 164 170 161 161 162 172 180 190 174
149 164 187 198 203 206 208 220 178 211 245 205 111 127 299 234 185 187 191 199 158 64 114 168 166 94 165 214 201 174 181 183 199 210 204 193 193 189 187 187 181 182 176 178 176 179 176 178 179 184 182 190 187 179 176 183 176 177 178 173 174 169 165 162 159 164 171 167 171 176 179 169 179 164 148 154 153 156 154 157 169 166 173 174 196 180
179 166 185 191 206 205 212 216 176 203 235 71 137 120 249 225 204 210 213 224 148 204 139 187 171 132 246 8 177 187 195 192 199 204 201 195 195 195 192 189 186 183 182 180 181 179 180 178 183 186 184 187 188 178 176 182 172 174 178 178 176 172 173 163 163 166 171 176 175 183 175 165 163 139 149 155 155 153 165 166 168 175 174 174 184 193
199 196 183 205 205 209 213 204 131 200 228 126 161 195 252 207 214 216 222 221 185 226 205 182 189 200 154 163 192 189 204 200 202 199 202 197 197 198 196 192 190 188 186 187 185 183 186 183 184 186 184 185 187 179 174 178 172 172 176 180 180 179 180 169 168 171 170 178 180 184 180 165 155 155 140 153 149 157 166 169 169 175 188 184 183 186
133 124 353 218 209 220 211 212 212 202 262 104 163 178 176 185 192 213 237 240 215 224 228 169 181 195 178 191 195 185 213 195 181 190 193 200 199 202 201 194 190 191 190 191 188 185 188 187 186 184 183 186 186 176 176 180 174 175 176 180 185 183 183 176 175 175 175 181 185 184 180 177 161 157 154 154 156 163 169 178 174 176 182 197 187 188
172 171 197 208 250 260 303 176 192 232 196 195 175 188 168 171 187 210 190 223 222 218 158 151 184 188 215 183 219 205 161 188 185 181 179 188 196 203 199 195 192 189 192 191 193 187 189 188 184 177 187 186 184 179 181 182 176 177 175 178 186 187 186 183 182 181 181 183 184 188 182 182 177 168 168 170 165 167 175 177 174 174 175 187 186 198
202 197 196 194 204 235 205 237 165 196 186 206 204 186 205 178 203 206 189 204 213 230 239 174 170 184 212 268 173 193 199 183 192 187 176 172 193 201 203 196 191 184 189 191 193 195 193 188 181 184 184 185 184 184 187 186 182 176 177 180 186 189 190 190 188 187 185 186 184 188 185 184 185 183 179 176 175 174 180 184 172 175 181 180 186 187
208 210 201 208 204 206 230 215 182 198 190 209 207 193 208 205 205 212 205 220 216 133 187 163 173 236 110 148 126 168 187 176 187 195 180 173 193 202 201 193 193 187 189 190 192 198 198 190 181 183 185 184 186 188 187 188 185 178 179 180 188 189 191 192 194 191 190 190 189 185 186 187 181 192 195 189 186 180 180 186 188 185 183 181 192 184
205 191 208 201 209 181 215 231 204 212 190 211 208 203 221 221 216 213 208 213 213 218 166 134 188 185 192 121 163 129 160 165 168 188 180 178 184 203 212 203 194 189 186 192 195 194 198 194 185 185 190 188 188 190 189 188 185 180 181 181 187 191 190 194 197 196 195 192 193 186 188 187 188 191 197 199 202 187 184 192 183 200 193 186 182 181
228 245 162 191 211 178 209 213 240 211 205 203 207 203 230 227 227 248 289 240 233 159 161 180 246 77 104 167 147 160 165 181 178 177 172 175 180 192 199 206 204 199 190 194 198 197 199 198 190 194 193 191 189 187 189 186 183 185 183 181 189 193 193 195 198 200 199 197 191 190 189 188 191 195 200 190 198 200 199 186 199 187 207 206 168 178
181 238 112 182 202 193 202 201 209 220 210 191 212 208 215 217 228 242 242 268 312 66 234 171 190 141 116 162 167 174 178 174 178 180 171 180 178 181 192 190 198 202 194 192 199 202 201 202 197 196 197 194 191 186 188 184 184 188 181 182 187 192 195 197 199 202 202 198 196 192 193 193 190 194 204 197 192 197 181 185 196 192 197 179 201 181
281 185 149 176 190 199 208 202 209 207 250 190 211 205 222 262 290 252 243 185 236 234 190 191 209 169 192 160 192 167 189 174 177 183 187 185 179 186 185 187 188 197 197 193 196 201 205 202 202 202 198 195 190 188 185 184 186 185 185 184 186 190 195 197 198 201 201 199 201 198 198 198 200 198 204 204 186 196 185 183 199 195 182 205 187 207
247 255 164 190 195 185 205 200 207 216 219 235 230 190 222 191 216 216 263 227 222 216 213 200 213 230 209 152 172 179 179 175 170 179 182 187 185 188 187 178 179 178 176 180 186 196 203 204 204 202 202 195 193 190 186 182 183 183 187 190 192 192 193 195 196 198 200 200 202 200 201 200 202 205 204 199 189 192 195 198 182 198 185 190 185 186
229 274 140 167 198 165 188 198 208 194 199 236 267 225 208 237 232 216 220 281 281 233 233 191 190 214 215 141 173 158 174 165 171 178 190 187 191 187 188 184 171 164 169 174 185 194 197 202 203 197 200 198 191 188 185 182 186 186 188 187 194 194 194 195 197 191 199 200 205 201 198 203 204 206 207 195 189 195 193 205 188 200 180 199 175 182
226 217 258 145 168 161 201 194 212 192 190 195 212 220 204 228 248 246 228 244 223 243 230 235 194 164 66 46 143 145 160 165 168 177 180 190 190 187 188 183 170 160 156 165 179 192 195 198 196 195 198 200 191 182 184 182 187 186 189 187 191 192 194 195 197 194 196 201 202 204 203 202 202 204 202 201 191 202 196 196 203 194 201 174 194 178
235 204 247 145 189 198 209 188 220 204 200 205 208 216 203 209 207 209 212 217 231 244 229 220 223 85 79 329 117 131 154 160 163 168 178 191 188 182 184 180 174 150 140 155 161 188 193 188 194 195 190 193 186 182 187 185 184 185 190 189 189 187 192 195 198 197 193 202 200 204 203 205 201 204 206 208 194 205 193 199 194 196 198 189 187 191
262 266 246 218 186 191 227 176 207 278 216 207 207 216 206 219 217 214 223 199 210 226 248 255 261 91 56 174 155 140 149 142 134 158 160 166 179 176 178 170 164 149 142 131 128 135 146 175 184 192 186 188 189 187 187 184 188 188 188 186 185 185 188 192 194 194 192 199 201 201 202 205 202 203 207 209 205 204 199 194 197 191 199 208 184 190
0 227 213 256 284 265 103 154 216 232 235 220 213 224 205 217 216 219 221 222 221 196 216 211 235 112 121 246 168 120 119 115 144 162 150 150 162 152 164 172 164 151 149 134 110 109 113 124 158 180 192 191 190 188 187 187 192 192 191 186 185 188 187 190 185 188 188 194 200 201 201 200 207 205 206 209 209 206 208 199 194 190 203 208 203 184
216 190 252 201 207 197 188 183 206 203 222 228 219 213 224 217 223 222 227 210 223 214 227 236 228 118 153 186 130 141 144 147 149 151 162 157 138 136 160 171 176 163 156 154 146 142 141 156 173 188 203 198 196 198 194 191 192 193 190 184 188 188 186 187 179 183 184 191 196 203 201 201 203 207 210 213 212 209 211 208 202 190 203 205 210 197
242 201 219 220 201 192 192 197 192 190 208 212 228 213 208 224 221 213 218 203 223 193 225 240 216 133 134 172 155 163 162 146 141 143 132 122 130 131 134 136 156 170 167 165 164 168 170 177 188 193 198 197 197 193 198 192 190 190 191 186 185 180 182 181 175 182 182 186 189 200 205 202 206 206 206 211 215 214 212 210 209 200 197 208 206 203
239 228 245 269 277 272 327 6 38 206 188 212 195 230 202 216 224 210 216 224 225 216 213 218 254 149 166 176 175 161 169 154 149 151 126 118 116 111 112 133 141 145 149 174 184 173 173 178 185 193 203 206 187 184 194 192 190 191 187 182 181 182 181 175 174 178 181 181 188 190 203 208 209 209 206 204 215 211 210 215 213 211 204 202 208 204
230 222 196 246 262 277 272 282 329 250 201 200 203 204 211 210 218 222 223 227 201 239 242 183 174 181 174 172 173 171 161 153 149 129 121 121 122 136 139 137 147 163 167 167 202 203 185 186 187 183 190 194 185 184 176 177 188 198 191 185 179 181 178 174 176 179 178 179 186 191 197 210 213 213 214 209 205 216 211 211 213 212 215 209 206 214
258 218 178 237 235 237 221 219 200 202 220 210 208 205 203 207 211 219 218 230 218 228 238 159 195 215 146 158 160 165 151 157 151 132 127 122 120 117 121 124 127 138 194 205 212 217 208 192 185 179 171 171 177 174 170 159 179 188 184 184 183 180 185 181 185 184 181 181 186 189 192 196 204 213 210 216 213 219 217 211 210 209 215 211 219 215
266 180 253 258 164 169 160 180 191 194 178 178 203 207 218 212 211 218 218 222 226 250 294 255 200 143 141 143 157 154 152 151 126 127 136 137 123 112 109 103 98 91 82 66 227 227 225 192 156 163 155 143 127 100 83 112 155 181 183 178 168 179 177 184 188 191 184 181 185 182 183 189 197 201 205 206 208 214 220 225 216 210 208 211 215 224
270 153 253 227 209 139 143 151 172 170 160 146 116 93 118 197 208 225 205 164 171 242 231 194 156 115 115 133 142 154 148 133 136 142 129 116 129 122 113 109 105 103 98 78 61 97 108 96 126 120 115 114 113 114 107 83 70 88 112 114 125 137 168 191 187 180 177 172 172 173 175 183 193 203 211 207 210 212 214 222 226 220 214 214 215 218
256 188 240 222 205 163 131 190 161 168 161 126 83 44 23 30 186 178 192 138 222 202 173 153 155 141 133 141 142 148 142 151 154 141 132 137 130 122 113 105 104 103 95 86 80 77 84 80 74 98 94 94 92 88 94 95 99 87 80 83 79 77 58 66 90 87 95 109 142 168 182 188 187 201 208 210 215 215 217 220 223 223 213 221 215 213
248 227 220 234 215 191 99 207 183 182 175 180 41 9 349 359 23 90 83 100 24 104 188 199 130 117 138 145 146 144 154 154 144 141 135 132 126 114 109 107 104 100 98 92 82 75 77 77 72 73 77 78 82 80 71 79 84 77 75 70 77 83 85 79 89 103 95 105 117 99 339 232 210 200 200 205 211 218 219 222 221 218 219 220 225 214
249 229 224 250 260 177 163 213 191 193 202 183 11 357 334 0 14 122 87 52 34 356 44 26 101 123 135 145 145 150 149 140 137 126 128 127 123 114 110 108 104 100 97 92 87 81 77 65 59 62 69 70 68 69 76 77 83 75 70 75 76 85 87 88 71 69 85 79 80 105 110 186 229 201 183 184 201 219 219 218 217 223 217 218 216 224
259 222 213 233 242 212 107 228 188 217 180 55 35 36 28 81 48 75 78 62 51 53 94 105 113 130 140 141 142 137 124 128 124 123 116 121 122 119 115 114 109 107 103 99 94 93 91 85 82 78 74 66 65 63 69 65 68 79 74 65 65 74 80 78 80 78 72 66 39 59 96 84 82 86 68 55 63 79 62 89 170 188 190 206 210 212
275 181 179 212 232 266 243 211 213 124 73 96 75 50 14 109 74 147 93 66 52 69 100 116 127 131 134 134 136 134 131 119 115 111 112 116 124 124 123 118 112 105 101 101 102 97 91 88 82 81 85 89 88 79 73 73 70 77 75 71 69 65 60 60 61 47 48 55 47 34 30 62 89 66 66 92 79 62 54 49 97 105 138 218 220 226
326 171 202 187 141 223 228 228 111 171 168 143 160 35 1 27 13 351 187 92 43 30 108 122 132 133 135 142 141 138 132 125 117 110 107 109 116 120 117 114 113 109 106 100 99 100 98 93 91 93 90 80 79 83 85 78 72 71 69 63 62 66 57 55 54 50 50 48 43 39 31 15 20 64 80 70 72 76 46 334 308 131 186 202 28 356
352 295 110 213 148 290 214 210 145 207 180 106 56 43 20 23 339 327 311 98 33 35 106 139 144 145 145 146 144 140 142 133 126 121 129 125 120 114 112 114 117 117 112 108 105 105 105 102 99 84 84 87 86 88 88 83 76 70 67 65 61 62 61 55 47 40 42 41 39 38 21 26 31 76 93 101 110 133 173 182 43 38 45 55 56 52
312 267 234 222 128 223 220 239 210 204 138 18 30 0 358 358 281 40 253 89 49 67 129 149 149 149 152 153 150 157 162 154 139 138 141 134 129 126 122 123 122 117 117 117 114 109 104 103 105 107 99 94 92 91 89 88 83 81 76 69 66 66 69 66 58 43 37 36 35 40 26 1 31 69 71 68 68 71 69 51 52 58 65 76 63 52
221 195 194 212 186 215 223 222 177 43 99 30 336 325 330 310 247 227 205 107 69 206 138 156 151 155 159 155 155 167 180 152 147 149 148 138 133 134 137 134 130 130 125 122 117 111 110 108 105 99 95 94 98 102 92 85 83 80 79 77 70 65 66 67 63 58 45 37 37 41 44 42 33 42 62 67 65 62 63 61 59 52 61 68 77 84
186 181 218 210 210 168 220 201 98 122 97 14 327 324 326 328 285 244 75 32 18 221 149 156 158 161 159 158 171 145 41 57 130 144 147 140 139 140 135 132 130 128 127 124 118 123 121 118 109 101 97 95 102 103 96 90 82 76 76 78 77 70 66 71 74 68 63 52 45 54 79 87 70 60 62 71 72 72 70 60 54 57 69 81 84 84
167 204 163 251 212 195 199 192 180 70 48 318 317 326 6 250 187 78 40 19 259 206 142 156 164 163 159 159 134 134 127 125 129 145 145 146 142 141 137 133 132 126 120 116 126 127 115 110 108 107 106 104 101 98 97 92 89 88 86 81 74 75 77 75 72 74 76 79 66 70 77 80 87 97 89 84 81 70 75 70 70 75 84 82 83 96
24 275 179 195 156 211 204 239 159 166 47 4 328 262 28 334 66 17 338 354 188 177 150 154 169 157 160 150 123 98 141 138 135 137 140 138 141 140 135 133 130 130 128 133 133 125 124 119 113 105 101 96 91 91 96 98 95 92 83 76 71 65 68 74 83 85 80 73 78 72 73 77 90 89 100 115 124 127 115 117 116 113 116 120 122 107
359 274 134 117 14 251 196 210 57 35 351 6 357 30 21 21 334 318 306 94 146 150 158 148 167 162 149 137 68 75 98 121 127 132 134 137 139 135 133 132 132 132 139 135 127 124 116 110 108 103 94 88 87 88 91 100 103 102 98 88 70 69 70 71 83 103 111 101 84 83 81 88 98 102 113 114 113 105 106 105 97 89 89 104 112 118
23 21 353 22 32 10 46 74 76 47 15 26 30 49 23 7 5 338 315 311 138 139 141 165 156 163 157 143 124 125 124 119 111 107 122 134 138 137 137 139 139 140 134 127 122 120 117 113 110 106 101 94 87 82 84 92 103 103 97 94 93 85 90 93 94 101 112 114 117 112 107 90 81 83 94 132 149 144 124 110 119 111 100 91 84 81
36 344 306 329 86 96 72 63 97 78 47 57 68 43 30 41 30 338 298 236 77 95 153 148 163 161 175 153 126 118 122 129 129 133 138 145 142 134 138 140 139 133 126 121 118 114 109 109 107 104 99 90 85 85 78 78 87 93 91 97 99 111 113 119 117 111 109 119 118 128 142 137 117 94 93 99 117 133 140 143 130 109 111 111 99 83
59 282 270 108 127 213 96 94 76 68 57 51 62 57 52 47 40 19 32 41 87 118 122 129 152 154 151 142 154 131 123 132 130 134 145 148 149 150 152 148 143 140 135 128 120 123 122 121 118 112 105 99 89 87 86 81 78 82 96 102 129 116 110 113 116 113 111 111 120 113 103 124 134 134 121 155 163 168 168 162 138 134 152 110 81 85
128 296 233 80 118 64 107 110 91 81 74 54 39 41 37 36 40 38 37 34 39 58 81 114 134 140 135 129 114 105 122 152 155 156 161 164 164 158 160 154 148 143 135 132 138 136 133 132 126 121 114 108 99 88 83 79 77 69 55 61 58 82 104 110 109 116 115 111 104 99 101 100 89 167 140 136 344 60 124 152 174 131 93 95 126 166
26 254 111 167 111 104 105 121 125 114 83 62 53 48 38 32 43 47 48 61 69 78 84 107 153 151 142 136 138 166 175 188 169 168 167 165 165 169 165 159 152 148 142 146 149 148 140 137 131 129 126 120 113 103 89 77 64 58 61 54 64 75 88 95 107 108 117 116 110 101 85 95 115 78 88 117 126 74 28 3 359 56 82 41 15 7
229 141 98 203 158 158 99 92 53 209 117 65 49 43 40 41 52 60 60 59 55 61 61 87 86 146 159 147 148 150 162 159 145 185 195 181 172 164 161 158 157 153 154 152 154 148 139 137 134 134 131 129 129 122 114 100 86 69 63 57 57 75 96 103 110 117 106 100 94 109 120 105 82 50 21 75 98 115 91 55 50 25 30 87 48 44
349 23 318 337 0 94 93 78 63 75 77 57 49 43 44 42 51 55 53 54 58 55 47 59 102 102 120 145 151 153 170 180 174 181 183 202 192 176 168 163 158 161 160 160 157 152 149 145 142 139 141 142 143 130 124 117 110 99 86 79 72 65 89 102 96 97 105 91 69 37 24 75 92 93 56 18 27 32 134 133 77 44 50 66 68 43